This is the latest recevied weather packets stored in our database for station/object KC9GSD. If no packets are shown the sender has not sent any weather packets the latest 10 day(s).
| Time | Temp. | Humidity | Pressure | Rain* | Wind** | Luminosity | Snow |
|---|---|---|---|---|---|---|---|
| 1777837948 | 20° C | 41% | 1019 hPa | 0 mm | - | 722 W/m² | - |
| 1777837646 | 20.56° C | 43% | 1019.3 hPa | 0 mm | - | 733 W/m² | - |
| 1777837341 | 18.89° C | 44% | 1019.4 hPa | 0 mm | - | 745 W/m² | - |
| 1777837037 | 20° C | 45% | 1019.3 hPa | 0 mm | - | 751 W/m² | - |
| 1777836734 | 20° C | 45% | 1019.5 hPa | 0 mm | - | 760 W/m² | - |
| 1777836429 | 20.56° C | 42% | 1019.5 hPa | 0 mm | - | 772 W/m² | - |
| 1777836125 | 19.44° C | 49% | 1019.7 hPa | 0 mm | - | 772 W/m² | - |
| 1777835821 | 19.44° C | 43% | 1019.7 hPa | 0 mm | - | 779 W/m² | - |
| 1777835519 | 19.44° C | 42% | 1019.8 hPa | 0 mm | - | 783 W/m² | - |
| 1777835215 | 19.44° C | 46% | 1020 hPa | 0 mm | - | 796 W/m² | - |
| 1777834912 | 20° C | 42% | 1020 hPa | 0 mm | - | 804 W/m² | - |
| 1777834609 | 19.44° C | 51% | 1020 hPa | 0 mm | - | 810 W/m² | - |
| 1777834304 | 19.44° C | 39% | 1020.2 hPa | 0 mm | - | 814 W/m² | - |
| 1777833999 | 18.89° C | 44% | 1020.2 hPa | 0 mm | - | 820 W/m² | - |
| 1777833696 | 18.89° C | 43% | 1020.2 hPa | 0 mm | - | 823 W/m² | - |
| 1777833393 | 20° C | 41% | 1020.5 hPa | 0 mm | - | 825 W/m² | - |
| 1777833090 | 19.44° C | 52% | 1020.3 hPa | 0 mm | - | 829 W/m² | - |
| 1777832788 | 18.33° C | 46% | 1020.5 hPa | 0 mm | - | 829 W/m² | - |
| 1777832486 | 18.89° C | 45% | 1020.6 hPa | 0 mm | - | 831 W/m² | - |
| 1777832183 | 18.33° C | 50% | 1020.6 hPa | 0 mm | - | 828 W/m² | - |
| 1777831880 | 18.33° C | 48% | 1020.7 hPa | 0 mm | - | 833 W/m² | - |
| 1777831577 | 18.33° C | 52% | 1020.5 hPa | 0 mm | - | 836 W/m² | - |
| 1777831275 | 18.33° C | 55% | 1020.5 hPa | 0 mm | - | 840 W/m² | - |
| 1777830971 | 18.89° C | 46% | 1020.7 hPa | 0 mm | - | 835 W/m² | - |
| 1777830668 | 18.33° C | 53% | 1020.6 hPa | 0 mm | - | 828 W/m² | - |
* Rain latest hour (hover to see other rain measurements)
** Current wind speed in m/s (hover to see current wind gust speed)